| time (UTC) | temp C | wind direction | speed KPH | gust KPH | rain 1hr cm | rain 24hr cm | rain mn cm | humidity % | barometer mb |
| 20260504204516 | 25 | 183 | 16.1 | 22.5 | 0.00 | 0.00 | 0.00 | 60 | 1003.6 |
| 20260504203537 | 24 | 185 | 17.7 | 24.1 | 0.00 | 0.00 | 0.00 | 59 | 1003.8 |
| 20260504202516 | 24 | 190 | 16.1 | 24.1 | 0.00 | 0.00 | 0.00 | 59 | 1003.9 |
| 20260504201517 | 23 | 166 | 19.3 | 29.0 | 0.00 | 0.00 | 0.00 | 59 | 1004.1 |
| 20260504200016 | 22 | 183 | 16.1 | 22.5 | 0.00 | 0.00 | 0.00 | 65 | 1004.2 |
| 20260504195036 | 22 | 185 | 14.5 | 22.5 | 0.00 | 0.00 | 0.00 | 64 | 1004.4 |
| 20260504194016 | 21 | 180 | 16.1 | 22.5 | 0.00 | 0.00 | 0.00 | 66 | 1004.5 |
| 20260504193016 | 21 | 180 | 16.1 | 22.5 | 0.00 | 0.00 | 0.00 | 69 | 1004.7 |
| 20260504192021 | 20 | 181 | 14.5 | 19.3 | 0.00 | 0.00 | 0.00 | 70 | 1005.0 |
| 20260504191017 | 20 | 177 | 17.7 | 25.7 | 0.00 | 0.00 | 0.00 | 72 | 1004.5 |
| 20260504190037 | 18 | 168 | 19.3 | 27.4 | 0.00 | 0.00 | 0.00 | 71 | 1004.3 |
| 20260504185016 | 18 | 164 | 19.3 | 29.0 | 0.00 | 0.00 | 0.00 | 71 | 1004.5 |
| 20260504184036 | 18 | 171 | 17.7 | 24.1 | 0.00 | 0.00 | 0.00 | 70 | 1005.8 |
| 20260504183017 | 19 | 175 | 16.1 | 24.1 | 0.00 | 0.00 | 0.00 | 69 | 1005.8 |
| 20260504182016 | 19 | 174 | 16.1 | 20.9 | 0.00 | 0.00 | 0.00 | 70 | 1005.9 |
| 20260504181016 | 18 | 179 | 17.7 | 24.1 | 0.00 | 0.00 | 0.00 | 69 | 1005.6 |
| 20260504180016 | 18 | 172 | 17.7 | 24.1 | 0.00 | 0.00 | 0.00 | 69 | 1005.6 |
| 20260504175017 | 18 | 175 | 16.1 | 24.1 | 0.00 | 0.00 | 0.00 | 69 | 1005.7 |
| 20260504174037 | 18 | 174 | 16.1 | 20.9 | 0.00 | 0.00 | 0.00 | 70 | 1005.8 |
| 20260504173016 | 18 | 182 | 14.5 | 20.9 | 0.00 | 0.00 | 0.00 | 69 | 1006.2 |
| 20260504171017 | 18 | 184 | 16.1 | 20.9 | 0.00 | 0.00 | 0.00 | 69 | 1006.3 |
| 20260504151016 | 18 | 180 | 14.5 | 22.5 | 0.00 | 0.00 | 0.00 | 62 | 1007.7 |
| 20260504141016 | 19 | 180 | 16.1 | 24.1 | 0.00 | 0.00 | 0.00 | 61 | 1008.0 |
| 20260504110139 | 16 | 174 | 14.5 | 16.1 | 0.00 | 0.00 | 0.00 | 72 | 1008.6 |
| 20260504081036 | 15 | 84 | 0.0 | 3.2 | 0.00 | 0.00 | 0.00 | 75 | 1009.0 |
| 20260504050017 | 18 | 3 | 0.0 | 3.2 | 0.00 | 0.00 | 0.00 | 58 | 1008.8 |
| 20260504045016 | 18 | 3 | 1.6 | 8.0 | 0.00 | 0.00 | 0.00 | 59 | 1008.6 |
| 20260504044016 | 19 | 118 | 1.6 | 4.8 | 0.00 | 0.00 | 0.00 | 58 | 1008.8 |
| 20260504043016 | 19 | 129 | 0.0 | 3.2 | 0.00 | 0.00 | 0.00 | 57 | 1009.0 |
| 20260504042036 | 20 | 338 | 1.6 | 3.2 | 0.00 | 0.00 | 0.00 | 56 | 1009.2 |
| 20260504041016 | 20 | 207 | 0.0 | 3.2 | 0.00 | 0.00 | 0.00 | 56 | 1009.4 |
| 20260504040016 | 20 | 69 | 0.0 | 4.8 | 0.00 | 0.00 | 0.00 | 55 | 1009.6 |
| 20260504035016 | 21 | 319 | 3.2 | 6.4 | 0.00 | 0.00 | 0.00 | 54 | 1009.4 |
| 20260504034016 | 21 | 273 | 1.6 | 8.0 | 0.00 | 0.00 | 0.00 | 53 | 1009.4 |
| 20260504033016 | 21 | 290 | 3.2 | 8.0 | 0.00 | 0.00 | 0.00 | 53 | 1009.8 |
| 20260504032016 | 21 | 315 | 1.6 | 3.2 | 0.00 | 0.00 | 0.00 | 53 | 1009.9 |
| 20260504031016 | 21 | 340 | 1.6 | 4.8 | 0.00 | 0.00 | 0.00 | 52 | 1010.1 |
| 20260504030016 | 21 | 77 | 0.0 | 4.8 | 0.00 | 0.00 | 0.00 | 51 | 1009.8 |
| 20260504025016 | 21 | 219 | 1.6 | 6.4 | 0.00 | 0.00 | 0.00 | 50 | 1009.8 |
| 20260504024017 | 21 | 335 | 1.6 | 4.8 | 0.00 | 0.00 | 0.00 | 50 | 1009.7 |
| 20260504023016 | 21 | 317 | 0.0 | 3.2 | 0.00 | 0.00 | 0.00 | 51 | 1009.9 |
| 20260504022016 | 22 | 0.0 | 0.0 | 0.00 | 0.00 | 0.00 | 49 | 1009.9 | |
| 20260504021036 | 22 | 269 | 0.0 | 3.2 | 0.00 | 0.00 | 0.00 | 49 | 1009.8 |
| 20260504020016 | 22 | 127 | 1.6 | 3.2 | 0.00 | 0.00 | 0.00 | 49 | 1009.7 |
| 20260504015016 | 22 | 161 | 1.6 | 4.8 | 0.00 | 0.00 | 0.00 | 49 | 1009.8 |
| 20260504014016 | 22 | 245 | 3.2 | 6.4 | 0.00 | 0.00 | 0.00 | 49 | 1009.8 |
| 20260504013016 | 22 | 334 | 1.6 | 4.8 | 0.00 | 0.00 | 0.00 | 48 | 1009.7 |
| 20260504012017 | 22 | 279 | 1.6 | 4.8 | 0.00 | 0.00 | 0.00 | 46 | 1009.2 |
| 20260504011016 | 22 | 240 | 1.6 | 6.4 | 0.00 | 0.00 | 0.00 | 46 | 1009.0 |
| 20260504010017 | 23 | 265 | 0.0 | 3.2 | 0.00 | 0.00 | 0.00 | 46 | 1009.1 |
| 20260504005026 | 23 | 183 | 0.0 | 3.2 | 0.00 | 0.00 | 0.00 | 44 | 1009.1 |
| 20260504004016 | 23 | 126 | 0.0 | 4.8 | 0.00 | 0.00 | 0.00 | 44 | 1009.1 |
| 20260504003016 | 23 | 311 | 0.0 | 3.2 | 0.00 | 0.00 | 0.00 | 43 | 1009.1 |
| 20260504002016 | 23 | 267 | 1.6 | 6.4 | 0.00 | 0.00 | 0.00 | 43 | 1009.1 |
| 20260504001016 | 23 | 257 | 1.6 | 4.8 | 0.00 | 0.00 | 0.00 | 42 | 1009.2 |
| 20260504000017 | 23 | 146 | 1.6 | 6.4 | 0.00 | 0.00 | 0.00 | 41 | 1009.2 |
| 20260503235037 | 24 | 279 | 1.6 | 4.8 | 0.00 | 0.00 | 0.00 | 41 | 1009.3 |
| 20260503234036 | 24 | 317 | 1.6 | 4.8 | 0.00 | 0.00 | 0.00 | 40 | 1009.3 |
| 20260503233016 | 24 | 301 | 1.6 | 6.4 | 0.00 | 0.00 | 0.00 | 41 | 1009.4 |
| 20260503232016 | 24 | 201 | 1.6 | 4.8 | 0.00 | 0.00 | 0.00 | 39 | 1009.5 |
| 20260503231017 | 25 | 290 | 3.2 | 9.7 | 0.00 | 0.00 | 0.00 | 39 | 1009.6 |
| 20260503230016 | 25 | 265 | 3.2 | 9.7 | 0.00 | 0.00 | 0.00 | 38 | 1009.6 |
| 20260503225020 | 25 | 266 | 3.2 | 6.4 | 0.00 | 0.00 | 0.00 | 39 | 1009.7 |
| 20260503224016 | 25 | 294 | 6.4 | 16.1 | 0.00 | 0.00 | 0.00 | 37 | 1009.7 |
| 20260503223017 | 25 | 281 | 3.2 | 12.9 | 0.00 | 0.00 | 0.00 | 38 | 1009.9 |
| 20260503222016 | 25 | 296 | 6.4 | 20.9 | 0.00 | 0.00 | 0.00 | 38 | 1009.9 |
| 20260503221016 | 25 | 279 | 4.8 | 12.9 | 0.00 | 0.00 | 0.00 | 38 | 1010.0 |
| 20260503220017 | 25 | 299 | 6.4 | 17.7 | 0.00 | 0.00 | 0.00 | 36 | 1010.1 |
| 20260503215017 | 25 | 291 | 6.4 | 24.1 | 0.00 | 0.00 | 0.00 | 36 | 1010.3 |
| 20260503214016 | 25 | 286 | 6.4 | 20.9 | 0.00 | 0.00 | 0.00 | 38 | 1010.3 |
| 20260503213016 | 25 | 287 | 6.4 | 19.3 | 0.00 | 0.00 | 0.00 | 39 | 1010.5 |
| 20260503212146 | 24 | 291 | 4.8 | 14.5 | 0.00 | 0.00 | 0.00 | 38 | 1010.5 |
| 20260503211016 | 24 | 291 | 6.4 | 16.1 | 0.00 | 0.00 | 0.00 | 38 | 1010.7 |
| 20260503210016 | 24 | 296 | 6.4 | 20.9 | 0.00 | 0.00 | 0.00 | 38 | 1010.6 |